Theta_e
311 311 311 311 311 311 311 311 311 311 310 310 309 310 309 309 310 310 311 310 310 310 307 314 315 308 310 317 316 313 310 309 311 313 315 317 316 320 320 320 321 322 321 332 335
313 312 312 312 311 311 311 312 312 312 312 311 310 310 310 310 310 311 314 314 314 311 307 312 316 313 316 317 317 311 308 309 310 313 315 315 317 318 319 318 320 322 321 342 347
311 310 310 310 310 310 310 311 311 311 311 311 310 311 311 311 309 310 316 315 314 313 308 313 315 316 316 316 317 315 313 311 313 314 315 315 315 318 317 317 320 321 320 336 351
307 306 306 306 306 307 307 308 310 310 310 310 311 312 312 311 307 310 314 316 315 312 308 314 314 315 311 312 316 316 314 314 314 314 316 315 317 317 318 318 320 320 320 326 346
306 305 305 304 304 304 305 305 308 309 309 311 312 313 312 310 311 310 309 315 315 313 311 311 313 312 309 309 312 312 314 317 317 316 316 316 315 315 317 318 318 319 320 319 327
304 304 304 303 303 304 304 304 306 309 310 311 313 313 311 309 310 309 311 314 316 315 313 312 312 313 311 310 310 312 312 314 316 316 316 316 316 318 319 319 319 320 319 320 320
304 303 303 303 303 304 304 305 307 309 311 313 313 312 311 311 312 314 313 311 313 314 314 313 312 312 312 311 313 312 315 314 313 313 314 317 316 318 319 319 319 319 319 320 320
303 303 303 303 303 303 305 308 310 312 312 312 312 311 310 311 313 311 312 313 313 314 314 314 314 313 315 318 318 316 314 316 315 313 313 316 316 317 319 319 319 320 321 321 320
303 302 302 302 303 304 306 310 312 311 312 312 311 311 311 311 309 311 311 311 312 312 314 315 316 314 316 315 310 312 315 317 317 315 317 314 315 316 319 319 318 320 321 322 322
302 302 303 303 303 304 307 311 312 311 312 310 311 310 310 310 309 308 310 311 311 313 315 315 313 311 309 310 311 313 315 315 317 317 316 316 316 316 317 317 318 319 320 321 322
302 303 303 303 304 305 307 312 310 310 308 309 310 310 311 308 307 306 309 311 312 311 308 309 308 308 308 311 312 313 314 316 316 315 316 317 317 316 315 316 314 317 318 320 321
303 303 303 303 306 306 309 311 309 308 308 308 310 309 307 308 308 306 307 310 311 310 310 313 310 309 309 310 311 312 313 313 313 313 314 315 316 315 315 315 315 316 317 319 320
303 302 303 307 307 311 310 308 308 308 308 308 311 307 306 306 306 305 305 306 311 311 314 313 312 313 312 311 311 311 312 312 313 314 313 314 315 314 314 314 315 316 317 318 319
302 302 306 309 309 310 309 309 308 309 306 309 307 306 306 306 307 306 305 305 309 312 311 310 313 314 314 316 314 314 312 313 315 318 316 313 316 313 312 312 312 313 316 317 319
302 304 310 310 310 310 309 309 308 310 306 308 307 307 306 305 306 306 306 305 308 307 306 308 308 309 313 314 315 315 315 315 317 320 321 319 317 316 311 313 312 311 314 317 318
303 306 309 309 309 310 310 310 308 310 312 312 309 307 306 305 306 306 306 305 305 305 306 306 307 311 312 313 315 315 317 317 318 318 323 319 319 317 316 313 313 312 315 317 318
304 307 308 308 307 310 311 310 304 311 310 311 308 307 307 305 306 306 305 304 306 305 306 306 307 306 310 313 314 312 317 316 314 316 318 317 319 319 316 314 314 315 314 317 317
305 305 308 308 308 308 309 304 309 309 309 307 307 307 306 306 305 305 305 304 306 306 306 308 308 307 309 312 313 313 314 315 310 312 317 318 322 319 317 317 317 317 317 317 318
305 307 308 307 307 307 309 304 307 306 306 307 308 308 306 306 305 304 304 305 307 306 304 308 309 308 309 311 311 313 313 314 315 316 315 316 316 315 315 316 314 314 316 317 317
305 308 304 304 305 307 302 306 304 305 307 307 308 308 308 306 305 305 305 306 308 308 307 309 310 309 310 311 313 315 314 317 314 318 317 315 316 315 314 314 315 315 316 317 317
304 306 304 304 303 304 300 301 303 304 304 307 307 306 307 305 304 305 306 306 307 308 308 308 309 310 310 313 313 315 317 316 314 313 316 316 315 312 314 313 318 319 320 321 321
303 300 303 301 299 298 299 300 302 304 304 304 303 304 306 304 303 305 306 307 306 307 308 309 308 308 314 312 314 315 316 314 315 314 316 317 316 317 317 320 320 318 319 318 318
302 303 302 300 296 297 298 300 301 303 303 303 302 304 304 304 305 305 305 306 306 306 308 308 310 310 311 313 314 315 315 317 315 317 317 317 315 314 317 317 317 318 318 318 319
300 298 300 299 298 298 298 299 300 301 303 302 302 303 304 303 304 306 305 305 307 306 307 308 309 312 310 310 310 312 313 315 312 313 312 315 315 315 315 315 314 316 319 321 321
298 297 298 295 297 296 297 298 300 301 301 301 303 304 303 304 304 305 306 307 306 306 308 308 312 311 310 311 311 311 312 312 312 312 313 312 312 312 313 313 314 319 321 321 323
297 297 297 297 298 296 296 299 299 299 299 301 302 302 302 304 305 307 306 306 307 306 306 304 303 305 308 309 310 311 311 311 312 312 312 312 312 312 312 312 313 316 322 323 322
295 297 297 297 296 296 296 298 298 297 299 300 301 301 302 304 304 303 304 304 305 306 305 305 307 306 308 310 310 313 314 313 314 312 315 316 313 312 313 321 322 320 321 321 324
Wind_Speed
30 29 30 29 29 29 30 30 31 32 32 32 32 30 26 26 28 31 35 23 21 14 20 11 9 20 22 13 10 6 2 5 7 10 5 5 7 8 1 5 5 8 15 19 16
33 32 32 31 31 30 31 32 32 33 32 32 31 29 29 30 28 32 7 1 3 9 20 18 15 20 12 11 10 6 5 10 4 8 1 6 3 3 3 2 7 16 13 13 11
31 30 30 30 30 30 30 30 32 33 34 34 31 30 31 29 22 3 3 3 4 5 17 18 12 16 7 8 11 7 10 3 3 7 9 11 7 9 5 8 10 14 9 10 13
32 31 31 31 31 30 30 30 29 30 30 28 28 31 28 20 6 5 10 9 5 8 17 21 15 11 6 7 12 5 10 15 2 12 11 5 7 6 16 22 13 20 24 9 14
33 33 33 33 34 33 31 31 29 29 26 26 26 24 21 12 13 13 12 10 8 9 15 21 20 9 7 5 8 4 4 5 14 25 25 21 16 11 29 31 26 28 33 25 20
37 38 37 36 35 36 34 31 29 25 26 24 23 22 16 5 11 10 9 10 12 12 16 21 9 17 6 5 5 3 7 14 20 20 15 8 10 11 26 19 24 25 33 35 27
39 38 39 39 38 36 35 31 26 24 24 22 20 14 14 15 7 15 14 16 17 15 17 16 23 11 4 2 7 8 6 8 4 7 8 14 15 32 21 27 28 22 21 26 28
39 39 39 39 39 37 33 25 24 21 24 19 15 14 9 4 2 25 15 16 13 17 15 11 16 14 4 6 6 3 0 1 5 5 7 17 24 6 14 22 21 18 18 23 25
42 42 43 42 41 38 25 22 16 20 16 15 12 11 7 8 26 21 20 17 13 17 18 8 2 9 2 3 4 3 3 3 5 4 3 10 7 1 4 14 20 25 26 23 25
43 44 44 43 42 37 18 17 12 12 13 13 6 11 2 22 27 25 20 6 7 2 19 10 7 4 3 3 6 6 5 4 6 3 4 11 13 10 18 11 12 18 22 26 25
43 44 44 44 39 25 18 6 13 5 27 13 26 20 22 21 14 25 26 7 2 5 6 6 3 6 11 13 12 9 7 10 8 7 8 16 16 11 12 16 14 18 21 24 25
43 44 43 41 31 16 13 10 12 13 12 30 11 6 12 13 4 28 29 13 7 4 6 1 6 9 15 10 10 9 11 13 7 9 8 14 22 17 19 17 20 22 28 27 31
43 45 43 31 17 15 14 17 21 20 4 11 4 9 19 14 3 18 24 8 5 9 3 4 7 13 11 9 11 11 14 11 12 5 9 10 19 15 14 15 21 26 29 32 30
42 43 33 23 12 12 17 22 23 15 4 6 7 10 20 19 8 11 15 9 3 7 6 8 5 3 9 10 10 13 9 13 13 6 5 4 7 5 7 12 9 18 28 32 31
41 38 20 18 12 15 20 23 24 1 3 4 5 11 23 5 10 3 11 11 8 7 4 9 14 14 11 5 3 9 6 10 10 7 3 4 4 5 7 10 10 10 24 30 33
37 28 17 17 15 16 20 28 7 4 3 6 6 12 16 2 9 4 9 14 10 4 4 13 13 10 10 12 8 4 2 3 1 3 7 15 10 5 8 9 7 7 19 20 27
35 17 15 19 25 19 20 25 5 4 10 8 10 14 17 5 7 3 6 5 0 4 4 16 9 7 18 9 10 2 3 2 2 2 8 4 7 18 6 9 12 12 15 25 18
35 12 9 17 19 20 17 6 6 5 4 11 11 19 7 9 3 9 10 6 2 3 4 4 8 2 8 14 3 5 9 4 6 3 4 3 6 13 16 18 14 25 26 21 21
32 4 11 22 24 19 7 4 2 6 9 9 15 4 4 4 6 7 7 5 2 1 2 5 6 7 10 5 8 5 6 12 5 2 2 4 8 14 12 16 6 10 20 27 28
26 4 23 23 17 9 5 3 4 8 8 4 4 5 6 7 7 11 4 5 1 4 4 3 11 6 4 1 11 11 5 4 2 4 4 5 6 10 4 4 6 6 7 13 14
19 3 21 19 13 13 3 4 5 12 17 4 4 8 6 5 7 8 6 10 5 5 2 6 6 8 3 4 4 2 6 2 3 3 4 2 6 5 15 12 4 6 10 9 11
13 3 18 27 10 5 3 6 7 7 11 5 5 6 3 5 6 8 6 5 14 10 8 2 4 6 6 10 9 7 3 5 4 4 4 3 9 3 4 3 4 6 12 18 17
11 6 10 21 4 3 7 6 4 6 8 3 4 4 4 7 6 6 6 6 16 6 4 3 3 4 7 1 5 2 2 0 2 1 6 3 5 2 5 8 11 10 20 25 23
8 4 6 10 7 2 4 4 6 10 12 9 10 11 6 15 13 6 11 8 15 23 27 14 4 7 2 3 2 4 6 3 4 2 3 9 14 15 11 9 14 17 20 20 27
9 3 3 4 4 5 2 3 5 7 6 11 4 5 14 8 16 4 6 7 13 12 3 3 4 5 9 11 10 11 12 11 9 7 6 6 12 17 8 11 14 19 23 26 29
5 6 6 6 9 6 4 2 4 4 5 8 5 17 18 7 14 20 19 13 4 3 5 3 4 5 6 8 7 9 10 11 13 14 16 19 26 20 20 23 15 18 18 20 23
8 5 2 4 4 3 2 3 6 15 11 16 13 19 17 12 27 37 33 27 14 5 3 4 3 4 5 7 12 6 2 4 8 10 10 13 21 14 15 6 5 10 15 14 13
Wind_Direction
8 4 0 357 354 351 347 344 340 339 335 333 331 328 327 321 314 304 293 297 289 254 227 210 184 187 194 199 189 169 125 228 221 175 223 223 190 206 255 214 319 294 331 301 278
1 357 354 351 348 344 340 337 335 333 329 326 325 325 324 323 318 302 324 94 265 232 214 199 174 174 176 190 196 169 184 222 223 217 360 301 258 355 324 342 285 296 304 326 259
355 351 346 342 339 337 334 331 328 327 324 322 322 320 321 326 323 313 290 293 274 227 203 195 181 174 189 183 191 203 234 190 192 208 218 250 269 275 256 269 237 239 333 316 224
353 350 346 341 337 332 331 328 324 321 318 317 316 316 318 323 305 297 288 272 255 188 185 192 188 181 185 198 211 248 242 248 349 245 234 235 258 243 238 249 252 259 292 291 254
351 348 344 341 336 333 331 328 326 320 318 318 316 314 315 306 279 290 273 243 232 213 198 198 193 177 179 204 226 257 268 260 254 248 255 266 265 259 261 262 267 264 267 264 267
350 348 346 345 341 336 335 330 324 319 317 318 315 312 304 279 300 317 292 246 239 239 221 211 216 209 229 211 172 255 253 265 264 266 261 248 263 240 258 274 257 256 261 263 269
351 350 347 344 340 339 338 331 327 324 318 315 316 306 290 293 341 4 319 272 254 250 237 237 221 185 227 246 272 266 315 319 237 210 219 220 258 240 250 262 274 270 255 257 255
351 349 345 341 340 339 340 333 330 325 320 334 334 316 270 334 347 348 333 336 257 236 230 256 236 231 240 287 341 273 300 334 279 194 225 167 257 357 238 227 233 245 261 265 261
351 349 344 340 342 341 340 335 331 327 333 343 339 331 295 353 347 356 345 308 295 240 227 237 234 214 189 146 346 347 243 222 305 196 308 202 280 312 256 229 230 238 235 248 257
351 347 342 341 342 339 344 340 329 328 352 346 10 329 346 328 343 2 8 342 269 232 236 242 212 177 58 125 232 225 226 217 216 280 318 274 270 313 316 311 269 259 245 245 246
350 346 340 343 341 344 356 3 1 354 324 289 290 279 301 326 35 20 18 1 300 216 176 208 161 196 206 212 221 225 240 262 251 264 296 276 288 285 286 289 298 283 267 257 255
350 345 341 347 347 360 26 55 25 326 301 319 327 257 2 354 342 13 6 28 24 315 329 290 240 227 223 224 222 224 241 259 270 250 244 272 270 270 265 263 253 261 270 267 260
350 346 344 355 11 38 63 17 353 336 284 309 43 25 20 348 54 15 11 6 353 316 348 283 273 292 234 234 223 231 232 245 244 252 257 280 281 256 255 250 250 249 256 261 258
351 346 353 14 35 39 11 353 341 331 44 292 7 34 355 350 353 343 359 350 305 240 246 267 259 345 266 245 225 245 223 243 251 253 238 144 284 205 229 247 218 230 236 248 253
352 351 1 18 22 11 351 342 332 266 346 16 20 358 348 67 323 33 340 336 258 271 334 240 262 281 277 251 276 266 202 222 221 226 283 264 252 256 209 236 240 222 233 241 248
355 357 7 15 360 347 340 339 354 52 273 334 332 344 342 329 330 298 311 328 268 284 234 255 263 253 235 244 230 355 2 344 286 186 234 235 211 227 219 225 248 228 234 237 244
354 355 11 12 360 350 336 340 33 72 351 355 329 335 323 323 320 14 316 331 46 357 305 304 259 247 229 259 239 114 95 275 309 197 242 206 207 244 253 226 227 239 237 250 247
352 337 4 1 349 350 343 21 47 13 342 321 315 306 291 6 315 326 331 348 358 62 278 323 320 230 201 224 225 182 167 236 195 187 242 341 213 255 221 246 240 239 251 254 259
355 20 354 338 328 331 355 39 32 5 339 308 316 306 320 347 341 336 324 292 203 129 105 306 256 318 298 262 190 174 215 228 287 302 354 242 268 287 249 249 225 242 249 254 257
357 61 8 6 12 5 68 356 348 7 335 306 297 7 313 326 342 351 296 265 311 150 140 274 293 254 298 176 229 225 176 169 197 208 227 252 252 234 17 156 211 248 243 255 255
5 62 358 354 347 42 81 303 299 347 357 325 282 289 278 347 329 306 266 290 277 1 279 267 237 298 328 233 228 155 211 167 158 172 204 240 254 214 226 249 214 269 283 279 286
9 39 356 6 49 23 359 306 291 341 345 291 318 287 278 335 297 285 243 233 320 341 304 302 292 281 250 247 313 272 217 168 177 206 219 268 261 274 184 169 191 257 295 315 312
358 336 359 21 64 342 306 301 296 317 327 327 291 263 12 322 296 252 269 275 309 339 345 305 260 314 303 311 221 94 145 353 68 86 221 215 262 122 337 331 309 294 303 313 313
1 6 357 46 94 90 337 287 322 319 301 331 287 276 345 305 283 280 279 307 314 313 297 271 258 256 256 309 3 317 313 228 152 200 255 238 281 283 304 299 296 297 302 305 304
23 51 17 320 346 334 269 277 311 340 318 308 279 270 322 296 304 252 269 280 292 310 13 3 268 290 280 268 256 255 259 255 235 224 231 274 281 276 282 289 277 281 294 299 298
32 5 343 296 303 334 341 302 302 320 296 300 256 313 312 286 288 302 311 307 271 322 347 6 291 335 286 269 262 268 261 258 249 247 246 256 267 272 275 276 274 272 285 287 303
21 349 339 297 321 337 260 311 302 323 288 245 289 311 306 298 310 294 285 272 251 262 305 303 314 335 272 323 313 284 6 320 283 253 236 247 251 278 283 284 337 328 299 287 307